Location: Hard
(49.9417°N, 12.0858°E)
Time: 04:15:56
(UTC+00:00)

STARLINK-1352 - Pass Details

Date: 07 June 2020
Orbit: 548 x 550 km, 53.0° (Epoch: 10 July)

Event Time Altitude Azimuth Distance (km) Brightness Sun altitude
Rises 00:51:17 0° 284° (WNW) 2,716 7.1 -13.9°
Reaches altitude 10° 00:53:33 10° 288° (WNW) 1,821 6.2 -13.8°
Maximum altitude 00:57:38 59° 9° (N) 634 4.2 -13.5°
Drops below altitude 10° 01:01:43 10° 90° (E) 1,817 6.6 -13.2°
Sets 01:03:59 0° 94° (E) 2,708 7.5 -13.1°
